Flag for Falkland Islands Weather past 2 weeks in Stanley, Falkland Islands

Now
45 °F

Fog.


Feels Like: 38 °F
Forecast: 41 / 44 °F
Wind: 14 mph from North

Location: Mount Pleasant Airport

Current Time: Sep 2, 2014 at 12:55:35 PM

Latest Report: Sep 2, 2014 at 11:50 AM


Visibility: 1 mi

Pressure: 30.09 "Hg

Humidity: 93%

Dew point: 43 °F

Location of StanleyLocation

Historic Weather in Stanley — Graph

°F

Stanley temperature yesterday

Maximum temperature yesterday: 41 °F (at 12:50 PM)
Minimum temperature yesterday: 32 °F (at 12:50 AM)
Average temperature yesterday: 37 °F

Past Weeks' High & Low Weather Summary

 TemperatureHumidityPressure
High45 °F (Aug 28, 2:50 PM)100% (Aug 18, 1:03 PM)30.39 "Hg (Aug 18, 1:03 PM)
Low27 °F (Aug 25, 5:03 AM)53% (Aug 19, 3:50 PM)28.94 "Hg (Aug 18, 11:50 AM)
Average36 °F88%30.03 "Hg
* Reported Aug 18 11:50 AM — Sep 2 11:50 AM, Stanley, Weather by CustomWeather, © 2014

Note: Actual official high and low records may vary slightly from our data, if they occured in-between our weather recording intervals... More about our weather records

Advertising

Stanley weather history for previous 24 hours

 ConditionsComfort  
Time TempWeatherWind HumidityBarometerVisibility
11:50 AM
Sep 2
45 °FFog.14 mph93%30.09 "Hg1 mi
10:50 AM43 °FPartly sunny.18 mph93%30.09 "HgN/A
9:50 AM41 °FFog.15 mph100%30.12 "Hg1 mi
8:50 AM41 °FFog.12 mph100%30.12 "Hg1 mi
7:50 AM41 °FFog.5 mph100%30.09 "Hg4 mi
6:50 AM41 °FFog.18 mph93%30.09 "Hg5 mi
5:50 AM41 °FDrizzle. Low clouds.6 mph100%30.09 "Hg2 mi
4:50 AM41 °FDrizzle. Low clouds.5 mph100%30.07 "Hg1 mi
3:50 AM41 °FPassing clouds.26 mph100%30.04 "Hg2 mi
2:50 AM41 °FFog.24 mph93%30.04 "Hg3 mi
1:50 AM41 °FFog.26 mph93%30.07 "Hg3 mi
12:50 AM41 °FDrizzle. Low clouds.12 mph93%30.09 "Hg3 mi
11:50 PM
Sep 1
39 °FDrizzle. Mostly cloudy.20 mph100%30.09 "Hg3 mi
10:50 PM39 °FPassing clouds.16 mph100%30.09 "Hg3 mi
9:50 PM39 °FDrizzle. Low clouds.18 mph100%30.12 "Hg2 mi
8:50 PM39 °FFog.22 mph93%30.12 "Hg2 mi
7:50 PM39 °FPassing clouds.18 mph93%30.12 "Hg2 mi
6:50 PM37 °FDrizzle. Low clouds.17 mph100%30.12 "Hg1 mi
5:50 PM39 °FDrizzle. Low clouds.16 mph93%30.15 "Hg2 mi
4:50 PM39 °FDrizzle. Partly sunny.21 mph93%30.12 "HgN/A
3:50 PM41 °FDrizzle. Low clouds.18 mph87%30.12 "HgN/A
2:50 PM41 °FPartly sunny.23 mph81%30.15 "HgN/A
1:50 PM41 °FPartly sunny.18 mph81%30.15 "HgN/A
12:50 PM41 °FPartly sunny.21 mph81%30.15 "HgN/A
Weather by CustomWeather, © 2014

See weather overviewHow to use our weather pages